JQ1YUX-13 Tokyo Ota-ku JP current weather conditions

sailwx.info

Wind from 010

Air temperature 15.6° C
Dewpoint 9.2° C

Last reported at 2015-Apr-25 11:48 UTC.
Time now 2015-Apr-25 12:39 UTC

Location: N 35°35' E 139°40'.
View on Google Maps.

See reports from other nearby stations

  
Tides and Currents Weather Stations Pressure Air Temp Water Temp Dewpoint Dewpoint Depression Visibility Wind Speed Wind Dir Waves Ship Positions
date/time (UTC)wind fromknots sea level pressurealtimeterstation pressurevisibilityair tempwater tempwave heightnotes
2015-Apr-25 11:48 010 15.6
2015-Apr-25 11:39 010 15.6
2015-Apr-25 11:18 011 15.6
2015-Apr-25 11:09 011 15.6
2015-Apr-25 10:48 011 16.1
2015-Apr-25 10:39 011 16.1
2015-Apr-25 10:18 011 16.1
2015-Apr-25 10:09 011 16.1
2015-Apr-25 09:48 030 16.7
2015-Apr-25 09:39 292 16.7
2015-Apr-25 09:18 025 16.7
2015-Apr-25 09:09 249 16.7
2015-Apr-25 08:48 234 16.7
2015-Apr-25 08:39 190 17.2
2015-Apr-25 08:18 273 17.2
2015-Apr-25 08:09 200 17.2
2015-Apr-25 07:48 173 0 gusting 4 17.8
2015-Apr-25 07:39 202 0 gusting 4 18.3
2015-Apr-25 07:18 327 18.9
2015-Apr-25 07:09 009 18.9
2015-Apr-25 06:48 010 19.4
2015-Apr-25 06:39 229 20.0
2015-Apr-25 06:18 222 20.0
2015-Apr-25 06:09 241 20.6
2015-Apr-25 05:48 202 21.7
2015-Apr-25 05:39 227 21.7
2015-Apr-25 05:18 214 21.1
2015-Apr-25 05:09 264 21.1
2015-Apr-25 04:48 010 21.1
2015-Apr-25 04:39 267 21.7
2015-Apr-25 04:18 267 22.2
2015-Apr-25 04:09 009 22.8
2015-Apr-25 03:48 217 22.2
2015-Apr-25 03:39 271 22.8
2015-Apr-25 03:18 195 23.9
2015-Apr-25 03:09 018 23.9
2015-Apr-25 02:48 318 22.8
2015-Apr-25 02:39 036 2 gusting 8 23.3
2015-Apr-25 02:18 219 22.8
2015-Apr-25 02:09 206 21.7
2015-Apr-25 01:48 015 0 gusting 7 21.7
2015-Apr-25 01:39 044 21.7
2015-Apr-25 01:18 227 20.6
2015-Apr-25 01:09 228 21.1
2015-Apr-25 00:48 029 3 gusting 6 20.6
2015-Apr-25 00:39 018 0 gusting 3 20.6
2015-Apr-25 00:18 005 0 gusting 5 20.6
2015-Apr-25 00:09 033 4 gusting 7 20.0
2015-Apr-24 23:48 233 19.4
2015-Apr-24 23:39 032 19.4
2015-Apr-24 23:18 019 19.4
2015-Apr-24 23:09 019 18.9
2015-Apr-24 22:48 029 2 gusting 5 18.3
2015-Apr-24 22:39 039 18.3
2015-Apr-24 22:18 342 17.2
2015-Apr-24 22:09 341 17.2
2015-Apr-24 21:48 342 16.1
2015-Apr-24 21:39 341 16.1
2015-Apr-24 21:18 341 15.6
2015-Apr-24 21:09 341 15.6
2015-Apr-24 20:48 341 15.6
2015-Apr-24 20:39 341 15.6
2015-Apr-24 20:18 341 15.6
2015-Apr-24 20:09 341 15.6
2015-Apr-24 19:48 341 15.6
2015-Apr-24 19:39 340 15.6
2015-Apr-24 19:18 341 16.1
2015-Apr-24 19:09 340 0 gusting 1 16.1
2015-Apr-24 18:48 341 16.1
2015-Apr-24 18:39 340 2 gusting 5 16.1
2015-Apr-24 18:18 340 16.1
2015-Apr-24 18:09 341 0 gusting 5 16.1
2015-Apr-24 17:48 350 0 gusting 1 16.1
2015-Apr-24 17:39 322 0 gusting 4 16.1
2015-Apr-24 17:18 252 16.1
2015-Apr-24 17:09 252 16.1
2015-Apr-24 16:48 252 16.7
2015-Apr-24 16:39 253 16.7
2015-Apr-24 16:18 253 16.7
2015-Apr-24 16:09 253 16.7
2015-Apr-24 15:48 252 17.2
2015-Apr-24 15:39 252 17.2
2015-Apr-24 15:18 252 17.2
2015-Apr-24 15:09 236 17.2
2015-Apr-24 14:48 236 17.2
2015-Apr-24 14:39 236 1 gusting 4 17.2
2015-Apr-24 14:18 234 17.8
2015-Apr-24 14:09 242 17.8
2015-Apr-24 13:48 272 4 gusting 6 17.8
2015-Apr-24 13:39 211 3 gusting 5 17.8
2015-Apr-24 13:18 217 2 gusting 6 17.8
2015-Apr-24 13:09 236 2 gusting 6 17.8
2015-Apr-24 12:48 185 2 gusting 6 17.8
2015-Apr-24 12:39 177 0 gusting 6 17.8
2015-Apr-24 12:18 180 4 gusting 8 17.8
2015-Apr-24 12:09 200 3 gusting 5 17.8
2015-Apr-24 11:48 218 2 gusting 4 17.8
2015-Apr-24 11:39 171 3 gusting 8 17.8
2015-Apr-24 11:18 210 4 gusting 7 17.8
2015-Apr-24 11:09 231 3 gusting 6 17.8
2015-Apr-24 10:48 225 0 gusting 3 17.8
2015-Apr-24 10:39 192 0 gusting 6 17.8
2015-Apr-24 10:18 132 1 gusting 7 17.2
2015-Apr-24 10:09 183 0 gusting 4 17.2
2015-Apr-24 09:48 187 2 gusting 5 17.8
2015-Apr-24 09:39 166 3 gusting 6 17.8
2015-Apr-24 09:18 173 1 gusting 6 18.3
2015-Apr-24 09:09 176 0 gusting 4 18.3
2015-Apr-24 08:48 180 2 gusting 6 18.3
2015-Apr-24 08:39 190 2 gusting 6 18.9
2015-Apr-24 08:18 229 5 gusting 13 18.9
2015-Apr-24 08:09 220 3 gusting 6 18.9
2015-Apr-24 07:48 212 4 gusting 8 19.4
2015-Apr-24 07:39 200 6 gusting 13 19.4
2015-Apr-24 07:18 160 4 gusting 13 20.0
2015-Apr-24 07:09 147 6 gusting 9 20.6
2015-Apr-24 06:48 173 5 gusting 10 21.1
2015-Apr-24 06:39 261 6 gusting 9 21.1
2015-Apr-24 06:18 180 4 gusting 10 21.1
2015-Apr-24 06:09 161 2 gusting 4 21.7
2015-Apr-24 05:48 196 5 gusting 13 21.1
2015-Apr-24 05:39 197 2 gusting 1 21.7
2015-Apr-24 05:18 176 1 gusting 5 21.7
2015-Apr-24 05:09 149 2 gusting 6 21.7
2015-Apr-24 04:48 167 1 gusting 4 22.2
2015-Apr-24 04:39 183 1 gusting 4 21.7
2015-Apr-24 04:18 148 2 gusting 9 21.7
2015-Apr-24 04:09 157 2 gusting 12 21.7
2015-Apr-24 03:48 164 3 gusting 11 22.2
2015-Apr-24 03:39 176 0 gusting 8 22.2
2015-Apr-24 03:18 172 1 gusting 5 22.2
2015-Apr-24 03:09 209 3 gusting 6 22.2
2015-Apr-24 02:48 206 1 gusting 5 21.7
2015-Apr-24 02:39 191 2 gusting 7 21.7
2015-Apr-24 02:18 171 4 gusting 9 21.1
2015-Apr-24 02:09 207 4 gusting 5 21.1
2015-Apr-24 01:48 163 4 gusting 8 21.1
2015-Apr-24 01:39 163 3 gusting 12 20.6
2015-Apr-24 01:18 181 2 gusting 6 20.0
2015-Apr-24 01:09 199 2 gusting 4 20.0
2015-Apr-24 00:48 217 1 gusting 6 20.0
2015-Apr-24 00:39 205 1 gusting 4 20.0
2015-Apr-24 00:18 227 2 gusting 4 19.4
2015-Apr-24 00:09 208 0 gusting 3 18.9
2015-Apr-23 23:48 218 3 gusting 7 18.9
2015-Apr-23 23:39 205 3 gusting 6 18.9
2015-Apr-23 23:18 180 1 gusting 5 18.9
2015-Apr-23 23:09 205 1 gusting 6 18.3
2015-Apr-23 22:48 195 1 gusting 3 17.8
2015-Apr-23 22:39 179 2 gusting 4 17.2
2015-Apr-23 22:18 229 3 gusting 5 17.2
2015-Apr-23 22:09 201 1 gusting 4 16.7
2015-Apr-23 21:48 200 0 gusting 1 16.1
2015-Apr-23 21:39 200 16.1
2015-Apr-23 21:18 200 16.1
2015-Apr-23 21:09 201 0 gusting 4 15.6
2015-Apr-23 20:48 200 15.6
2015-Apr-23 20:39 200 15.6
2015-Apr-23 20:18 201 15.6
2015-Apr-23 20:09 200 15.6
2015-Apr-23 19:48 200 15.6
2015-Apr-23 19:39 200 15.6
2015-Apr-23 19:18 200 15.6
2015-Apr-23 19:09 200 16.1
2015-Apr-23 18:48 200 16.1
2015-Apr-23 18:39 200 16.1
2015-Apr-23 18:18 200 16.1
2015-Apr-23 18:09 200 16.1
2015-Apr-23 17:48 200 16.1
2015-Apr-23 17:39 200 16.1
2015-Apr-23 17:18 200 16.7
2015-Apr-23 17:09 200 16.7
2015-Apr-23 16:48 200 16.7
2015-Apr-23 16:39 200 16.7
2015-Apr-23 16:18 200 16.7
2015-Apr-23 16:09 200 16.7
2015-Apr-23 15:48 200 16.7
2015-Apr-23 15:39 200 16.7
2015-Apr-23 15:18 200 16.7
2015-Apr-23 15:09 200 16.7
2015-Apr-23 14:48 199 16.7
2015-Apr-23 14:39 200 16.7
2015-Apr-23 14:18 200 16.7
2015-Apr-23 14:09 200 16.7
2015-Apr-23 13:48 200 17.2
2015-Apr-23 13:39 200 17.2
2015-Apr-23 13:18 200 17.2
2015-Apr-23 13:09 200 0 gusting 1 17.2
2015-Apr-23 12:48 200 17.2
2015-Apr-23 12:39 199 17.2
2015-Apr-23 12:18 200 17.2
2015-Apr-23 12:09 213 1 gusting 3 17.2